Weather History for Quillayute, WA

Change the Weather History Date:

Wednesday, September 18, 2013

  Actual Average Record
Temperature  
Mean Temperature 59 °F 56 °F  
Max Temperature 69 °F 66 °F 84 °F (1991)
Min Temperature 48 °F 47 °F 33 °F (1978)
Degree Days  
Heating Degree Days 6 9  
Month to date heating degree days 32 135  
Since 1 July heating degree days 204 504  
Cooling Degree Days 0 0  
Month to date cooling degree days 14 0  
Year to date cooling degree days 39 17  
Growing Degree Days 8 (Base 50)    
Moisture  
Dew Point 50 °F    
Average Humidity 72    
Maximum Humidity 89    
Minimum Humidity 55    
Precipitation  
Precipitation 0.11 in 0.13 in 1.62 in (2004)
Month to date precipitation 0.77 1.98  
Year to date precipitation 62.59 58.70  
Sea Level Pressure  
Sea Level Pressure 30.03 in    
Wind  
Wind Speed 3 mph (SSE)    
Max Wind Speed 12 mph    
Max Gust Speed 22 mph    
Visibility 4 miles    
Events Fog , Rain    
T = Trace of Precipitation, MM = Missing Value Source: NWS Daily Summary

Daily Weather History Graph

Daily Weather History Graph

Search for Another Location

Airport:

Trip Planner

Search our weather history database for the weather conditions in past years. The results will help you decide how hot, cold, wet, or windy it might be!

Date:

Astronomy

Sep. 18, 2013 Rise Set
Actual Time 6:59 AM PDT 7:23 PM PDT
Civil Twilight 6:28 AM PDT 7:54 PM PDT
Nautical Twilight 5:52 AM PDT 8:31 PM PDT
Astronomical Twilight 5:13 AM PDT 9:09 PM PDT
Moon 6:48 PM PDT (9/18) 6:08 AM PDT (9/18)
Length of Visible Light 13h 25m
Length of Day
12h 23m
Waxing Gibbous, 99% of the Moon is Illuminated
Sep 18
Waxing Gibbous
Sep 19
Full
Sep 26
Last Quarter
Oct 4
New
Oct 11
First Quarter

Hourly Weather History & Observations

Time (PDT) Temp. Dew Point Humidity Pressure Visibility Wind Dir Wind Speed Gust Speed Precip Events Conditions
12:23 AM 53.6 °F 51.8 °F 94% 29.97 in 6.0 mi Calm Calm - N/A   Mostly Cloudy
12:53 AM 54.0 °F 50.0 °F 86% 29.99 in 6.0 mi Calm Calm - N/A   Mostly Cloudy
1:09 AM 53.6 °F 50.0 °F 88% 29.99 in 6.0 mi Calm Calm - N/A   Scattered Clouds
1:30 AM 53.6 °F 48.2 °F 82% 29.99 in 2.5 mi Calm Calm - N/A   Partly Cloudy
1:49 AM 51.8 °F 48.2 °F 88% 30.00 in 5.0 mi Calm Calm - N/A   Partly Cloudy
1:53 AM 52.0 °F 46.9 °F 83% 30.00 in 6.0 mi Calm Calm - N/A   Haze
1:56 AM 51.8 °F 46.4 °F 82% 30.00 in 1.8 mi Calm Calm - N/A   Haze
1:58 AM 51.8 °F 48.2 °F 88% 30.00 in 0.8 mi Calm Calm - N/A   Scattered Clouds
2:08 AM 51.8 °F 46.4 °F 82% 30.00 in 1.0 mi Calm Calm - N/A   Mostly Cloudy
2:16 AM 51.8 °F 48.2 °F 88% 30.00 in 0.8 mi Calm Calm - N/A   Mostly Cloudy
2:27 AM 51.8 °F 48.2 °F 88% 30.00 in 0.2 mi Calm Calm - N/A Fog Fog
2:53 AM 50.0 °F 46.9 °F 89% 30.01 in 0.2 mi Calm Calm - N/A Fog Fog
3:22 AM 50.0 °F 46.4 °F 87% 30.01 in 0.5 mi Calm Calm - N/A Fog Fog
3:36 AM 48.2 °F 46.4 °F 93% 30.01 in 1.5 mi Calm Calm - N/A   Mostly Cloudy
3:41 AM 48.2 °F 46.4 °F 93% 30.01 in 3.0 mi Calm Calm - N/A   Mostly Cloudy
3:51 AM 51.8 °F 46.4 °F 82% 30.01 in 2.5 mi Calm Calm - N/A   Scattered Clouds
3:53 AM 50.0 °F 46.9 °F 89% 30.01 in 2.5 mi Calm Calm - N/A   Scattered Clouds
3:59 AM 48.2 °F 46.4 °F 93% 30.01 in 1.5 mi Calm Calm - N/A   Mostly Cloudy
4:03 AM 48.2 °F 46.4 °F 93% 30.01 in 0.8 mi Calm Calm - N/A   Mostly Cloudy
4:15 AM 48.2 °F 46.4 °F 93% 30.01 in 0.2 mi Calm Calm - N/A Fog Fog
4:23 AM 48.2 °F 46.4 °F 93% 30.01 in 1.0 mi Calm Calm - N/A   Overcast
4:28 AM 48.2 °F 46.4 °F 93% 30.01 in 2.5 mi Calm Calm - N/A   Overcast
4:35 AM 50.0 °F 46.4 °F 87% 30.01 in 7.0 mi Calm Calm - N/A   Mostly Cloudy
4:50 AM 50.0 °F 46.4 °F 87% 30.01 in 5.0 mi Calm Calm - N/A   Mostly Cloudy
4:53 AM 50.0 °F 46.9 °F 89% 30.01 in 6.0 mi Calm Calm - N/A   Mostly Cloudy
5:53 AM 50.0 °F 46.9 °F 89% 30.02 in 6.0 mi Calm Calm - N/A   Scattered Clouds
6:06 AM 51.8 °F 46.4 °F 82% 30.02 in 1.5 mi Calm Calm - N/A   Scattered Clouds
6:12 AM 48.2 °F 46.4 °F 93% 30.02 in 1.2 mi Calm Calm - N/A   Mostly Cloudy
6:20 AM 50.0 °F 46.4 °F 87% 30.02 in 0.5 mi Calm Calm - N/A Fog Fog
6:27 AM 48.2 °F 44.6 °F 87% 30.02 in 1.0 mi Calm Calm - N/A   Mist
6:29 AM 48.2 °F 46.4 °F 93% 30.02 in 2.5 mi Calm Calm - N/A   Mostly Cloudy
6:32 AM 48.2 °F 46.4 °F 93% 30.02 in 1.2 mi Calm Calm - N/A   Mostly Cloudy
6:36 AM 48.2 °F 44.6 °F 87% 30.02 in 0.8 mi Calm Calm - N/A   Mist
6:43 AM 48.2 °F 44.6 °F 87% 30.02 in 1.5 mi Calm Calm - N/A   Mostly Cloudy
6:46 AM 48.2 °F 44.6 °F 87% 30.02 in 3.0 mi Calm Calm - N/A   Mostly Cloudy
6:53 AM 50.0 °F 46.9 °F 89% 30.03 in 4.0 mi Calm Calm - N/A   Scattered Clouds
6:58 AM 50.0 °F 46.4 °F 87% 30.03 in 1.8 mi Calm Calm - N/A   Partly Cloudy
7:09 AM 50.0 °F 46.4 °F 87% 30.03 in 4.0 mi Calm Calm - N/A   Clear
7:53 AM 53.1 °F 50.0 °F 89% 30.04 in 5.0 mi East 5.8 mph - 0.00 in Rain Light Rain
8:08 AM 53.6 °F 50.0 °F 88% 30.04 in 2.5 mi East 3.5 mph - 0.01 in Rain Light Rain
8:31 AM 55.4 °F 51.8 °F 88% 30.05 in 3.0 mi Calm Calm - 0.03 in Rain Light Rain
8:36 AM 55.4 °F 51.8 °F 88% 30.04 in 1.8 mi East 3.5 mph - 0.05 in Rain Heavy Rain
8:51 AM 53.6 °F 51.8 °F 94% 30.05 in 3.0 mi Calm Calm - 0.11 in Rain Light Rain
8:53 AM 55.0 °F 51.1 °F 86% 30.05 in 5.0 mi Calm Calm - 0.11 in Rain Light Rain
9:12 AM 55.4 °F 51.8 °F 88% 30.05 in 6.0 mi East 4.6 mph - N/A   Mostly Cloudy
9:53 AM 57.9 °F 53.1 °F 84% 30.06 in 6.0 mi Calm Calm - N/A   Haze
10:36 AM 62.6 °F 55.4 °F 77% 30.06 in 6.0 mi Calm Calm - N/A   Haze
10:53 AM 62.1 °F 55.9 °F 80% 30.07 in 6.0 mi SE 3.5 mph - N/A   Haze
11:07 AM 64.4 °F 55.4 °F 73% 30.07 in 6.0 mi South 4.6 mph - N/A   Haze
11:53 AM 66.9 °F 55.9 °F 68% 30.07 in 6.0 mi Variable 5.8 mph - N/A   Haze
12:06 PM 64.4 °F 53.6 °F 68% 30.07 in 6.0 mi Variable 5.8 mph - N/A   Haze
12:35 PM 68.0 °F 55.4 °F 64% 30.07 in 6.0 mi South 6.9 mph - N/A   Haze
12:53 PM 69.1 °F 55.0 °F 61% 30.07 in 6.0 mi South 8.1 mph - N/A   Haze
1:06 PM 68.0 °F 53.6 °F 60% 30.07 in 6.0 mi South 6.9 mph - N/A   Haze
1:53 PM 69.1 °F 55.0 °F 61% 30.07 in 6.0 mi SSW 6.9 mph - N/A   Haze
2:53 PM 69.1 °F 54.0 °F 58% 30.07 in 6.0 mi SW 6.9 mph - N/A   Haze
3:53 PM 68.0 °F 52.0 °F 56% 30.06 in 6.0 mi SSW 9.2 mph - N/A   Haze
4:53 PM 66.0 °F 54.0 °F 65% 30.06 in 6.0 mi South 4.6 mph - N/A   Haze
5:53 PM 66.0 °F 55.0 °F 68% 30.06 in 5.0 mi SW 3.5 mph - N/A   Haze
6:53 PM 63.0 °F 55.0 °F 75% 30.06 in 5.0 mi Calm Calm - N/A   Haze
7:53 PM 57.9 °F 53.1 °F 84% 30.06 in 6.0 mi Calm Calm - N/A   Haze
8:53 PM 57.9 °F 54.0 °F 87% 30.06 in 6.0 mi Calm Calm - N/A   Clear
9:53 PM 57.9 °F 53.1 °F 84% 30.06 in 6.0 mi East 4.6 mph - N/A   Haze
10:53 PM 57.9 °F 53.1 °F 84% 30.04 in 6.0 mi East 4.6 mph - N/A   Haze
11:53 PM 57.9 °F 53.1 °F 84% 30.03 in 6.0 mi ENE 4.6 mph - N/A   Haze